GFSMA_sfc_temp_198.txt.gz
Temp
86 83 83 82 85 84 84 83 79 82 83 84 74 74 81 85 85 74 80 82 82 83 83 84 84 83 83 83 83 83 83 83 82 82 82 81 81 81 81 81 81 81 81
81 82 83 84 85 85 84 85 79 80 82 84 85 85 84 85 85 83 84 81 82 82 83 83 84 84 84 83 83 83 83 83 82 82 81 81 80 81 81 81 81 80 80
86 82 82 81 83 86 86 86 83 83 79 85 83 85 84 86 85 86 86 84 82 82 82 83 83 83 83 84 83 83 82 82 82 81 81 81 80 80 80 80 80 80 80
87 83 73 70 74 83 83 83 75 77 73 78 79 81 82 83 85 86 87 86 83 83 82 83 83 83 83 83 83 83 82 82 81 81 81 81 81 80 80 79 79 79 79
88 78 73 72 75 75 69 75 80 78 74 79 82 81 80 80 82 90 87 86 81 76 79 82 81 82 83 84 83 83 83 82 81 81 80 80 80 80 79 79 79 79 79
87 86 74 71 77 74 71 74 83 84 80 84 81 85 82 82 83 82 85 89 79 76 79 81 80 81 82 83 83 83 82 81 81 80 80 79 79 79 79 79 79 79 78
84 87 84 73 85 80 76 85 85 81 73 81 79 77 81 86 86 80 76 80 81 84 83 82 82 82 81 82 82 82 82 81 80 80 81 80 79 79 78 78 78 78 78
90 89 86 85 83 85 85 86 85 80 75 74 75 70 68 76 81 81 79 80 80 84 83 83 84 83 79 80 80 81 81 80 80 80 81 80 79 79 78 78 77 77 77
87 87 86 87 82 82 80 75 80 83 70 71 79 67 67 64 68 78 81 81 82 84 85 86 86 83 81 81 80 80 79 79 79 80 80 80 79 79 78 78 77 77 77
77 86 87 85 83 84 80 79 84 82 79 73 73 73 72 69 63 63 76 82 83 82 82 81 84 83 84 81 80 79 79 78 78 79 80 81 80 79 79 78 78 77 77
75 86 86 85 82 85 83 82 83 82 79 76 69 67 70 79 73 70 67 74 81 81 82 82 84 84 84 77 73 77 77 77 77 77 78 79 81 80 80 79 78 78 78
82 83 86 84 85 85 83 82 83 85 81 80 78 76 77 71 70 72 67 68 70 71 78 82 79 81 81 80 80 77 76 75 74 74 75 76 78 80 80 80 80 79 79
79 82 82 81 83 83 82 83 83 82 82 80 81 81 81 77 78 72 69 67 64 73 79 82 81 81 81 75 76 76 74 73 72 72 72 73 74 75 77 80 80 80 80
81 83 80 83 85 84 82 85 83 81 83 80 82 81 77 76 75 83 70 67 64 66 72 81 82 82 79 74 76 74 72 71 70 70 70 70 71 72 73 74 75 79 80
87 81 74 73 77 84 85 84 84 82 81 81 79 82 81 82 84 84 79 75 75 69 68 71 75 81 79 79 76 74 72 70 70 69 69 69 69 70 70 70 71 72 76
88 86 76 75 81 83 85 83 82 83 80 80 84 82 82 83 83 81 83 83 81 76 70 77 79 79 77 77 78 74 70 69 68 68 67 67 68 68 68 69 69 70 71
85 85 85 82 82 83 82 81 80 80 81 81 82 82 81 81 83 78 79 82 80 76 71 74 73 75 74 73 73 72 72 69 67 67 66 66 65 66 66 66 67 67 69
84 83 83 83 82 83 82 82 80 83 81 80 81 80 81 86 81 81 81 80 80 78 74 68 72 72 74 74 74 73 73 71 67 66 65 65 64 64 63 63 64 66 67
83 84 83 81 82 83 83 83 81 81 82 81 80 80 80 81 80 81 79 78 78 80 76 72 72 75 75 74 71 70 69 67 68 66 65 64 64 63 63 62 62 62 65
83 83 82 82 82 83 84 84 83 82 82 84 82 81 81 81 81 80 79 77 80 76 77 75 73 73 73 72 70 66 65 67 66 70 67 67 67 65 63 62 61 60 59
84 83 83 83 83 84 86 82 82 81 81 81 82 82 83 83 81 80 80 77 76 77 76 74 73 73 73 68 67 67 65 65 65 68 67 67 64 63 62 62 61 60 59
83 83 83 82 82 86 78 74 78 82 80 79 80 81 82 78 77 76 77 76 76 76 75 73 73 72 71 70 69 67 64 62 60 67 62 59 61 58 59 59 61 60 59
83 82 82 82 81 82 74 70 70 79 81 78 78 78 81 87 79 80 72 72 72 72 73 75 74 74 73 74 70 68 65 65 64 63 60 56 59 56 58 59 60 59 58
80 79 80 81 80 82 72 71 67 75 78 79 79 79 78 79 79 79 79 77 77 78 74 78 77 77 76 76 74 70 68 63 62 61 61 54 57 55 57 57 59 58 58
79 79 79 79 79 80 70 66 67 72 76 78 80 80 79 78 74 68 77 76 76 77 67 67 66 68 69 72 73 66 62 60 57 57 58 55 55 54 55 55 56 58 56
76 78 78 79 75 78 70 65 65 74 75 78 79 79 69 76 69 64 71 75 74 75 72 69 70 69 72 70 68 71 66 63 58 55 57 54 54 53 50 54 54 54 54

GFSMA_sfc_temp_201.txt.gz
Temp
76 75 72 75 73 77 74 77 76 74 76 74 74 72 73 75 75 76 76 82 81 82 83 83 83 83 83 83 82 82 82 82 81 81 81 82 81 81 81 81 81 80 80
75 73 75 75 78 76 76 76 73 73 73 74 73 72 73 76 78 74 76 78 81 81 82 83 83 83 83 83 82 82 82 82 81 81 81 80 80 80 81 81 80 80 80
77 70 70 71 74 74 75 77 75 76 74 77 73 73 79 80 79 76 78 74 80 82 82 83 82 82 83 83 83 82 82 81 81 81 80 80 80 80 80 80 80 80 79
74 71 72 71 72 71 71 73 71 73 71 72 76 79 81 79 80 80 80 74 77 80 80 82 82 82 83 83 83 82 81 80 80 80 80 80 80 80 79 79 79 79 79
75 71 71 71 71 71 69 72 71 73 70 71 74 79 79 79 79 85 78 78 77 76 75 81 81 81 83 84 83 82 82 81 80 80 80 79 79 79 79 79 78 78 78
75 71 71 72 71 71 69 70 71 74 72 72 77 81 77 79 77 78 78 77 75 74 73 77 77 79 81 83 82 82 82 81 80 80 79 79 78 78 78 78 78 78 78
79 73 71 73 73 72 71 71 74 75 72 73 70 69 76 78 80 73 74 74 76 74 77 75 78 76 78 80 81 81 82 81 81 80 79 79 78 78 78 78 77 77 77
80 79 75 75 74 74 75 75 74 72 70 69 69 67 64 69 72 75 72 78 78 78 80 80 79 75 78 76 77 80 80 80 80 80 80 79 78 78 77 77 76 77 77
84 80 80 78 77 76 74 72 72 73 67 69 69 66 65 63 65 68 74 74 74 76 77 80 79 78 78 76 77 79 79 78 79 80 80 79 78 78 77 77 77 76 76
78 82 80 78 77 75 74 74 77 73 71 68 70 71 68 68 63 61 69 77 76 74 74 80 81 80 77 75 78 78 79 77 78 79 80 80 79 78 78 78 77 76 76
77 78 78 79 77 75 76 76 76 74 73 70 70 67 66 67 67 65 65 68 71 72 72 73 76 77 78 74 72 75 77 76 76 77 77 78 79 80 80 78 78 77 77
75 77 80 78 78 76 76 76 76 76 74 73 70 68 69 68 68 67 65 65 67 69 71 73 73 76 74 72 76 77 76 75 74 74 74 75 78 80 80 80 79 78 78
74 78 77 76 76 77 77 76 76 75 74 74 73 72 71 70 72 67 66 64 65 66 70 74 76 78 76 73 74 75 74 73 72 71 72 72 74 75 76 78 80 80 80
76 78 75 75 77 78 77 77 76 75 75 75 75 74 73 71 72 71 68 65 62 63 68 70 73 73 73 72 73 74 70 71 70 70 70 70 71 72 73 73 75 78 79
78 75 75 74 73 75 76 77 77 76 75 75 73 75 74 75 77 72 70 67 65 63 63 69 70 73 72 73 73 70 68 70 69 69 68 69 69 70 70 71 71 72 74
78 73 72 72 72 75 78 78 76 76 75 75 76 75 74 75 75 72 74 68 69 69 64 69 69 71 72 71 72 69 68 69 68 68 67 67 67 68 68 69 68 70 72
77 76 73 73 75 77 77 76 76 76 75 75 76 75 76 76 74 72 72 75 71 69 66 68 70 71 71 70 69 67 67 67 67 67 66 65 65 65 66 66 67 68 69
76 76 76 76 76 77 77 76 75 77 75 74 75 74 75 80 75 74 73 74 72 71 69 67 65 65 69 69 67 67 68 67 65 66 65 65 64 63 63 63 64 66 68
76 76 76 75 75 76 76 76 76 75 75 75 75 74 75 75 74 74 74 72 72 72 69 66 68 69 71 70 69 67 65 62 67 66 64 64 64 63 62 62 62 63 65
76 75 76 76 75 76 76 75 76 75 75 77 76 75 75 75 74 74 74 73 73 71 70 70 69 70 71 70 68 65 63 65 63 68 67 64 64 64 63 62 62 60 59
78 76 76 76 76 77 79 76 76 76 75 75 76 76 77 77 76 75 75 73 73 71 70 69 68 69 70 67 66 66 64 64 64 66 64 62 58 60 61 61 61 61 59
76 76 76 75 75 80 76 73 75 75 76 74 74 75 76 77 76 74 74 75 75 72 70 68 68 68 69 69 67 65 64 62 60 66 60 58 60 57 58 59 61 60 59
76 76 76 76 75 75 72 71 70 69 72 74 74 74 76 83 76 75 73 71 71 72 74 72 69 69 69 69 68 66 64 64 62 63 60 56 58 56 57 58 60 59 58
75 74 73 73 73 76 69 69 69 69 71 73 73 74 74 75 74 74 73 72 72 72 70 73 71 72 72 72 71 69 67 64 62 60 60 54 56 55 56 57 60 59 58
72 73 73 73 73 73 69 67 65 69 68 71 73 73 74 74 71 69 71 72 72 72 66 65 66 67 71 70 70 66 62 61 56 56 58 55 55 54 55 54 56 58 57
69 70 69 69 69 70 68 65 64 70 70 71 72 72 69 73 67 66 69 70 71 72 69 67 67 67 68 68 67 70 65 64 57 55 57 54 54 53 51 54 54 54 54

GFSMA_sfc_temp_207.txt.gz
Temp
72 72 72 72 72 72 72 72 71 70 71 71 70 70 71 72 72 72 71 79 81 81 82 83 82 82 82 82 82 82 82 82 81 81 81 81 81 80 80 80 80 80 80
72 71 71 71 71 72 72 72 72 70 70 71 71 71 72 72 73 72 72 73 81 81 82 83 83 83 83 83 83 82 82 81 81 81 80 80 80 80 80 80 80 80 79
71 72 71 71 72 72 73 73 72 71 71 71 71 71 72 72 73 73 73 72 77 82 82 82 82 82 82 83 83 82 82 81 81 80 80 80 79 79 80 80 80 80 79
72 71 70 70 70 70 70 71 71 71 69 69 70 71 71 72 73 73 74 73 75 77 79 81 81 82 82 83 83 82 82 80 80 80 80 79 79 79 79 78 79 78 78
74 71 70 69 69 70 69 69 69 71 70 69 71 72 72 71 73 77 72 73 73 74 74 78 81 81 82 83 83 83 82 81 80 79 79 79 79 79 78 78 78 78 78
75 72 70 70 69 69 69 68 69 71 70 72 73 73 72 72 72 72 72 74 73 74 73 74 75 78 81 82 82 82 82 81 80 80 79 79 78 78 78 78 78 78 77
74 71 71 70 71 71 71 70 70 72 69 69 68 68 69 71 71 72 74 72 73 74 74 73 76 75 75 80 80 80 82 82 80 80 79 78 78 77 77 77 77 77 77
74 72 71 71 72 71 71 70 70 69 68 69 67 65 64 66 68 71 70 72 72 74 72 75 74 73 73 74 76 80 80 80 81 81 80 79 77 77 77 76 76 76 76
76 74 73 72 72 71 71 71 69 69 66 68 68 66 62 62 63 66 68 71 72 70 71 72 74 75 73 73 76 78 80 79 80 80 79 79 78 77 77 76 76 76 76
76 76 75 74 73 71 71 71 73 70 68 67 68 69 67 67 63 63 67 73 72 70 70 71 72 74 73 72 76 77 78 78 78 78 79 79 78 78 78 77 77 76 76
74 75 74 74 72 71 72 72 72 71 70 67 67 65 66 66 66 64 62 66 69 69 69 70 71 72 72 71 71 74 78 77 76 77 77 77 78 79 79 78 78 77 77
72 73 74 74 73 71 72 73 73 72 71 70 69 68 68 67 65 65 64 64 67 67 68 69 70 71 72 71 75 76 77 76 75 75 74 75 77 78 80 80 79 78 78
70 73 73 73 73 72 72 73 72 72 72 70 70 69 68 68 68 67 66 64 64 66 67 69 71 71 72 71 74 76 76 74 73 72 72 72 73 75 76 79 79 79 79
72 73 73 73 73 73 72 73 72 72 72 71 71 70 69 69 69 68 67 64 62 63 66 69 70 70 71 71 73 75 71 71 71 70 70 70 71 72 73 74 75 77 78
73 74 73 72 73 73 73 73 71 72 73 72 71 71 70 70 70 69 69 67 65 61 62 67 69 71 71 71 73 70 69 71 70 69 69 69 69 69 69 69 70 72 74
73 74 73 72 71 72 72 71 72 72 72 72 72 71 70 71 70 70 69 68 67 65 62 65 68 71 71 71 72 69 68 69 69 68 67 67 67 68 68 68 69 70 71
73 73 72 71 71 72 71 72 72 72 71 72 72 72 72 71 70 70 70 68 66 67 65 66 69 71 70 70 70 68 68 66 65 67 66 66 65 65 65 65 67 69 69
72 73 72 71 71 71 72 72 72 74 72 71 72 71 71 74 71 71 69 68 68 67 66 65 67 68 69 69 68 66 66 67 65 66 65 64 64 64 63 64 63 66 67
71 72 72 71 71 71 72 72 72 73 72 72 72 71 72 71 70 70 70 69 68 69 68 67 64 65 69 67 66 65 64 64 66 65 64 63 64 63 63 62 62 62 63
71 70 71 71 71 71 72 71 72 72 72 72 72 72 72 72 71 70 70 70 69 68 67 66 65 65 68 67 66 64 62 63 62 66 66 62 63 64 63 62 62 62 60
73 71 71 71 71 72 75 72 72 72 71 71 72 72 72 73 73 71 70 70 69 68 66 65 65 67 67 65 64 64 63 62 62 63 61 58 56 56 58 61 62 63 61
71 71 71 71 71 72 70 70 72 71 71 71 70 71 72 73 72 70 69 70 70 68 67 66 65 67 67 67 67 65 64 61 60 64 61 59 60 58 56 57 61 61 60
71 71 71 71 72 71 67 68 69 70 71 69 70 70 71 77 71 73 70 69 68 67 69 70 67 68 68 69 68 66 65 64 63 62 59 57 57 56 57 58 60 60 59
71 71 71 72 71 70 64 64 66 67 69 69 69 70 69 71 71 71 70 70 70 69 68 69 71 70 72 72 71 68 67 65 61 61 63 57 56 56 57 57 60 60 59
70 67 68 67 67 66 62 61 63 67 67 68 69 69 69 70 68 66 68 69 70 70 67 66 67 65 65 67 69 68 65 62 59 57 61 57 55 54 55 55 57 59 58
66 66 65 64 64 64 61 58 60 65 66 67 68 68 65 68 64 63 67 68 68 69 69 67 67 65 64 67 66 70 67 64 61 56 58 59 54 53 52 54 55 55 55

GFSMA_sfc_temp_210.txt.gz
Temp
73 73 73 74 73 73 73 74 73 73 74 74 74 72 73 74 75 76 75 78 80 81 82 84 84 83 82 82 82 82 82 81 81 81 81 81 81 80 80 80 80 80 80
72 73 73 73 73 72 72 73 73 72 72 73 73 73 74 74 76 75 76 77 81 81 82 83 83 83 83 83 83 82 82 82 81 81 80 80 80 80 80 80 80 80 80
72 73 73 71 73 73 74 73 74 73 72 73 73 74 74 75 76 75 77 76 77 81 82 82 82 82 82 82 82 82 82 81 81 81 80 80 80 80 80 80 80 79 79
73 73 72 72 72 73 72 73 73 72 72 72 72 73 74 74 76 76 77 77 78 81 81 81 81 81 82 82 83 82 82 81 80 80 80 80 80 79 79 79 79 79 78
75 73 72 72 71 72 72 72 71 73 71 71 72 73 74 73 76 80 76 77 77 79 78 79 80 81 82 83 83 83 82 81 80 80 79 79 79 79 79 78 78 78 78
75 73 72 71 71 71 71 71 72 73 73 72 75 75 75 75 76 75 76 77 77 77 78 79 79 82 81 82 82 82 82 81 80 80 79 79 79 78 78 78 77 78 78
75 72 73 71 71 71 72 72 72 71 72 72 70 71 71 73 75 75 75 75 76 77 77 78 79 79 81 80 80 81 82 82 81 80 79 78 78 77 77 77 77 77 77
75 73 72 72 73 72 73 72 73 70 71 71 69 69 68 69 72 73 74 76 75 77 77 78 79 78 79 80 81 80 80 81 82 81 80 79 78 77 77 77 76 77 77
76 75 74 73 73 73 73 73 73 72 69 70 71 70 66 66 67 71 73 74 74 75 76 76 77 78 77 79 79 80 80 79 80 79 80 79 78 77 77 77 76 76 76
76 76 76 74 74 74 73 74 74 73 71 70 70 71 70 70 67 68 71 74 75 74 74 76 76 77 78 78 78 78 79 79 79 79 79 79 79 78 78 78 77 76 76
73 76 76 75 74 73 74 74 74 73 72 70 71 69 69 69 69 67 67 70 72 73 74 75 75 76 76 76 76 77 77 78 77 77 77 77 78 78 79 79 78 77 77
72 74 76 74 74 74 74 74 75 74 72 72 70 70 69 68 68 68 67 69 69 72 72 74 73 75 77 76 77 76 77 77 76 75 75 75 76 78 79 80 79 79 78
73 73 73 73 74 75 75 75 75 75 74 71 72 72 71 71 71 70 69 68 68 70 71 73 75 74 75 75 77 77 77 75 74 73 72 72 73 74 76 78 79 79 79
74 75 74 74 75 75 75 75 75 75 75 73 74 73 73 72 71 71 71 69 66 67 69 73 73 74 74 75 76 75 77 73 72 71 70 71 71 72 72 73 74 76 78
73 75 75 75 75 75 75 75 74 74 75 73 73 74 73 74 73 72 72 70 70 67 68 71 72 73 73 75 76 75 75 71 71 70 69 69 70 70 70 70 70 70 73
75 74 75 75 74 74 74 73 73 75 74 75 74 74 73 74 73 73 72 71 70 69 68 70 71 72 72 73 73 72 73 71 70 69 68 68 68 68 68 68 69 70 69
74 74 74 73 72 72 72 72 73 75 74 73 73 74 75 74 73 73 73 72 70 70 67 70 72 73 71 71 71 70 70 68 70 68 67 67 66 65 65 65 67 68 69
75 75 75 74 73 72 73 74 75 77 75 74 75 74 74 75 74 73 72 71 71 70 70 69 70 70 70 71 69 68 67 70 70 67 66 65 64 64 64 64 64 64 66
73 75 75 74 74 74 75 75 75 75 75 75 75 74 75 75 74 74 73 72 71 72 71 70 68 68 70 68 67 66 66 67 68 67 64 64 64 64 63 63 62 62 62
73 73 73 74 74 74 75 74 74 74 75 75 75 75 75 75 74 74 74 73 73 71 70 70 68 67 69 68 67 65 63 65 65 68 68 66 65 64 64 63 63 63 61
73 73 72 73 73 73 74 73 74 74 73 73 75 75 76 75 73 73 74 74 73 71 70 69 69 68 68 67 66 66 65 65 65 66 66 65 66 65 65 63 65 64 62
73 73 73 73 73 74 69 69 72 73 74 73 72 74 75 73 73 70 69 70 73 72 70 69 69 69 69 69 68 66 65 63 61 66 64 63 65 65 66 65 63 62 61
73 73 73 74 74 74 65 65 68 71 72 72 72 72 73 77 73 75 71 68 68 68 71 73 71 71 71 71 69 66 66 65 66 66 65 62 62 62 65 64 61 61 60
72 72 73 74 73 71 62 62 65 71 71 72 72 72 72 73 73 73 74 74 74 73 71 72 73 75 75 73 72 70 68 68 66 65 65 62 61 61 61 62 61 61 60
72 71 70 69 69 68 60 59 64 69 69 70 72 72 73 72 69 65 70 72 73 73 69 66 68 67 67 68 70 69 66 64 63 61 62 63 58 58 58 59 60 61 59
69 68 67 66 63 66 57 56 59 64 64 67 69 70 65 67 64 62 68 70 70 72 73 71 68 66 66 68 66 71 69 65 64 60 61 61 56 57 58 58 59 59 59

GFSMA_sfc_temp_216.txt.gz
Temp
89 89 83 87 85 91 89 85 86 87 90 91 92 90 92 93 95 97 97 81 81 82 83 84 83 83 83 83 83 82 82 82 82 81 81 82 82 82 81 81 81 81 81
90 86 87 93 89 86 84 90 86 89 90 92 90 90 90 92 91 92 96 90 81 82 83 84 84 84 83 83 83 82 82 82 82 81 81 81 81 81 81 81 81 81 81
90 87 88 86 94 94 88 89 88 87 87 92 89 91 91 90 92 90 93 96 90 81 82 83 83 84 84 84 83 83 83 82 82 82 81 81 81 80 80 81 81 81 81
87 88 88 92 94 92 92 93 92 80 83 87 90 91 92 92 91 91 93 95 96 97 84 83 83 83 83 84 83 83 83 82 81 81 81 81 81 80 80 80 80 80 80
89 89 93 94 89 93 92 93 93 85 87 84 91 91 91 92 94 96 94 92 95 95 98 82 82 82 83 84 84 83 83 82 82 81 81 81 80 80 80 80 80 79 79
90 88 93 91 89 92 90 92 86 92 90 90 92 89 92 93 94 95 95 94 95 95 97 95 93 91 82 83 84 83 83 83 82 81 81 80 80 80 79 79 79 79 79
90 87 92 90 90 88 88 87 89 76 86 90 83 81 83 92 93 94 95 95 95 94 95 95 94 97 92 82 81 82 83 83 82 82 81 80 80 79 79 78 78 78 78
90 88 87 90 89 92 86 86 85 87 87 91 78 79 78 86 92 94 94 94 92 96 96 94 94 93 94 96 92 81 82 82 83 83 82 81 80 79 78 78 77 77 77
90 88 88 89 88 89 92 88 88 85 85 89 87 86 79 82 88 94 92 93 92 93 96 94 94 93 92 94 90 87 81 80 82 83 83 81 80 79 79 78 78 77 77
90 90 89 89 88 92 88 90 92 88 85 80 90 90 89 87 82 81 91 93 92 90 92 95 95 93 92 95 91 86 82 80 81 82 82 81 80 79 79 79 78 78 77
89 91 90 89 89 91 89 87 87 86 89 87 90 90 87 89 88 85 84 84 91 93 94 93 96 96 95 94 96 90 80 79 79 80 80 80 80 79 79 80 80 79 78
87 87 90 89 89 89 88 90 88 87 86 86 86 79 84 86 84 87 86 86 87 89 94 94 93 95 96 96 93 82 80 78 78 78 78 79 78 78 79 80 81 80 79
86 91 89 89 90 87 88 89 87 87 86 83 84 87 91 90 92 90 86 86 85 91 91 94 93 93 95 96 96 84 79 76 76 76 76 76 77 76 76 77 79 80 81
92 92 90 90 89 89 88 87 85 90 88 88 86 85 91 93 93 91 88 84 81 89 89 87 94 93 94 95 91 79 90 74 74 73 73 74 74 74 74 74 74 76 78
93 90 89 89 89 89 88 88 84 87 88 87 87 87 88 88 87 91 91 90 84 82 87 89 90 90 93 92 90 92 91 73 73 72 71 71 72 72 73 72 72 72 72
90 89 89 88 89 88 88 86 89 89 87 90 92 87 85 86 82 79 87 90 90 86 79 93 93 90 89 88 86 87 90 74 73 72 71 70 70 71 71 72 71 71 71
88 88 87 87 88 89 88 85 86 87 86 86 88 87 86 86 85 87 87 91 90 90 85 90 91 89 83 83 84 86 85 85 83 71 70 69 69 70 70 71 69 69 70
88 88 88 88 88 88 88 86 87 90 87 87 87 86 85 89 82 83 83 83 82 86 84 80 83 83 83 84 83 80 79 87 90 71 69 68 68 68 68 67 67 66 66
87 88 87 87 87 87 88 88 87 88 88 89 88 87 87 88 86 89 86 86 87 86 81 82 86 85 88 81 77 77 77 79 86 71 67 67 66 66 65 65 65 64 63
85 86 86 87 87 88 88 89 89 87 87 89 89 89 88 87 86 86 85 84 83 85 85 83 83 83 82 79 76 75 72 75 79 85 76 73 69 66 65 64 64 64 62
87 86 86 87 88 88 91 88 88 87 86 86 88 89 89 86 79 80 85 86 84 81 80 83 84 82 82 79 74 80 76 81 78 79 78 80 79 79 77 65 71 66 63
85 85 85 86 86 90 78 73 79 88 87 86 86 88 89 82 80 73 72 72 77 81 80 84 85 83 82 82 81 83 79 78 71 82 79 83 83 78 83 83 75 70 64
85 85 85 86 85 87 71 70 70 83 86 87 85 86 88 92 83 88 75 69 69 69 71 82 80 81 80 81 82 80 78 79 78 84 78 80 83 81 80 76 66 65 63
83 84 85 85 85 87 64 65 68 81 84 85 85 86 85 85 85 82 83 84 85 86 82 83 82 83 85 85 83 81 80 79 81 83 80 78 85 81 82 81 67 64 62
84 84 85 85 85 79 60 61 67 85 85 84 84 84 84 83 74 66 78 78 81 84 81 71 71 71 69 66 70 79 75 73 74 77 74 78 79 80 82 80 82 64 61
85 89 87 86 75 74 58 58 66 85 82 84 83 82 70 73 60 58 71 74 74 79 83 84 85 75 71 77 67 79 80 72 73 74 76 70 78 74 76 78 78 79 70

GFSMA_sfc_temp_219.txt.gz
Temp
92 77 80 84 90 82 82 87 89 87 84 86 86 93 90 92 95 99 92 81 81 82 83 83 83 83 83 83 83 83 83 82 82 82 82 82 82 82 82 81 81 81 81
92 83 89 77 81 83 88 83 87 82 89 83 85 87 93 93 93 94 95 88 82 82 83 84 84 84 83 83 83 83 82 83 83 82 81 81 82 82 82 81 81 81 81
91 89 83 91 81 80 88 89 82 81 84 84 84 88 93 92 93 91 94 93 88 82 82 83 84 83 83 84 83 83 83 82 82 82 82 82 81 81 81 81 81 81 81
90 90 84 88 92 92 94 80 75 77 84 85 81 87 92 93 92 91 93 93 84 93 84 83 83 83 83 84 84 83 83 82 82 82 82 81 81 81 81 80 80 80 80
92 90 80 84 90 83 92 84 76 79 74 89 84 85 90 93 94 96 93 94 92 84 89 83 81 82 83 84 84 83 83 82 81 81 81 81 81 81 80 80 80 80 79
92 90 88 92 90 92 92 89 88 80 81 81 81 88 83 91 95 95 94 96 96 97 97 89 87 87 82 84 84 83 83 83 82 81 81 81 80 80 80 79 79 79 79
92 90 91 92 91 90 90 90 87 77 88 89 79 83 88 88 93 95 96 94 94 97 97 96 89 87 83 82 82 82 83 83 83 82 81 80 80 79 79 79 78 78 79
92 90 88 92 90 82 88 89 87 88 88 83 79 77 75 84 86 95 95 95 93 93 94 95 94 93 80 86 86 81 82 83 83 83 82 81 80 79 79 78 77 77 78
93 91 90 89 91 89 77 89 90 87 84 86 90 78 71 69 77 86 94 92 93 93 94 86 88 90 91 88 87 83 81 81 82 83 83 82 79 79 79 78 78 77 77
92 93 90 90 89 91 84 92 92 89 88 83 81 91 90 86 77 66 72 84 94 92 92 84 90 86 86 92 89 86 81 81 81 82 83 82 81 80 80 79 78 78 77
91 93 91 90 90 91 90 88 88 88 89 85 78 81 87 90 89 85 73 80 78 90 93 93 95 88 93 95 96 90 81 80 80 81 81 82 81 81 80 80 80 79 78
92 90 91 90 91 90 90 90 89 88 87 86 88 83 78 75 82 80 78 83 82 87 90 93 93 94 97 97 94 82 80 79 79 79 79 80 81 80 80 80 81 80 79
91 87 87 86 90 88 89 89 89 88 87 86 83 83 89 82 80 87 88 86 77 81 83 93 92 93 96 97 97 87 79 77 77 76 76 77 78 79 79 79 80 80 81
87 83 86 90 91 91 90 89 90 90 83 89 86 86 88 82 84 84 82 79 77 78 78 90 95 92 94 96 91 82 89 74 75 74 74 75 76 76 77 77 77 78 79
93 84 91 90 90 90 90 89 87 86 87 87 88 87 89 93 89 89 84 89 80 81 75 78 86 92 94 95 91 93 93 75 74 73 73 73 73 73 74 74 75 75 74
88 84 90 90 90 90 90 88 87 85 87 90 91 86 87 92 88 85 83 84 89 80 79 89 79 88 91 91 88 89 86 74 73 72 71 71 71 72 72 72 74 73 73
91 90 90 89 88 89 89 87 82 80 83 87 88 88 87 88 86 82 84 85 84 84 80 81 85 87 86 85 88 88 86 87 81 71 71 70 70 70 71 71 72 72 72
89 89 89 88 88 88 89 87 83 85 85 87 88 87 88 90 86 86 84 83 82 79 78 78 85 83 80 81 84 84 86 90 90 71 70 69 69 69 69 69 69 69 69
88 89 88 86 85 85 88 88 87 88 89 90 89 89 88 88 85 89 88 88 88 87 83 78 80 83 82 81 82 80 79 81 87 71 68 68 68 67 67 66 66 65 65
87 87 85 85 85 88 89 89 89 88 88 90 90 90 89 88 86 84 86 84 87 85 85 83 83 85 84 82 82 81 79 80 82 88 80 77 71 67 66 65 65 65 62
87 85 84 85 88 89 92 88 89 88 88 88 89 89 90 87 78 77 81 82 83 83 86 84 82 84 84 80 79 83 81 84 82 83 85 85 80 77 75 66 70 66 64
83 86 86 86 85 91 80 76 83 88 89 88 86 87 89 84 82 74 73 73 78 79 79 78 85 84 81 82 77 79 81 78 77 87 81 82 86 82 80 78 71 68 64
86 86 86 87 87 88 73 73 74 88 87 86 86 85 87 93 84 89 76 71 71 69 70 79 77 81 81 84 82 77 75 74 79 83 81 81 87 85 86 83 70 68 65
84 84 85 86 87 87 65 67 71 84 85 85 86 86 86 86 80 79 83 83 84 85 82 81 81 82 83 84 83 81 80 77 76 76 78 76 86 80 86 87 68 66 64
84 85 86 86 85 82 62 63 69 85 86 86 88 87 85 83 67 62 77 78 79 82 81 73 70 72 70 70 71 79 78 75 76 75 77 77 82 81 84 84 84 66 63
86 88 86 87 79 76 60 61 67 86 85 87 86 86 72 74 60 58 72 73 72 75 79 81 82 79 72 79 68 76 79 76 77 73 78 75 77 80 77 85 86 82 74

GFSMA_sfc_temp_222.txt.gz
Temp
78 79 77 77 75 77 79 79 78 79 80 83 84 80 84 86 85 85 81 81 80 82 83 83 83 83 83 83 83 83 82 82 82 82 82 82 81 81 81 81 81 81 80
78 77 75 73 73 78 80 78 78 79 79 82 84 83 85 84 87 85 82 80 81 81 82 83 83 83 83 83 83 83 82 82 82 82 81 81 81 81 81 81 81 81 81
87 77 76 72 73 74 78 77 80 80 80 82 83 82 84 87 87 86 85 82 81 81 82 83 83 83 83 83 83 83 82 81 81 81 81 81 81 81 81 80 80 80 80
87 80 74 78 80 77 77 73 74 75 76 77 79 80 84 85 86 85 86 84 82 84 82 82 82 83 83 83 83 83 82 81 81 81 81 81 81 80 80 80 80 80 80
88 83 75 76 84 75 76 73 72 70 68 72 78 81 82 83 86 90 86 85 85 85 82 82 81 82 83 84 84 83 82 82 81 81 81 81 80 80 80 80 79 79 79
87 86 82 82 86 81 85 78 74 72 72 73 73 82 81 82 83 85 86 89 86 87 85 83 81 81 82 84 83 83 83 82 81 81 80 80 80 80 79 79 79 79 78
87 86 85 82 86 85 84 85 81 77 78 75 73 76 78 83 84 84 86 85 87 88 88 83 82 82 78 81 82 82 82 82 82 81 80 80 79 79 78 78 78 78 78
88 87 84 83 83 78 78 81 81 80 78 78 74 73 69 74 81 84 83 86 84 86 86 85 83 81 78 80 81 81 82 82 82 82 81 80 80 79 78 78 77 77 78
89 87 85 83 83 80 76 73 78 80 75 75 73 71 69 66 67 69 70 70 72 83 80 78 79 77 77 81 81 81 81 80 82 82 82 81 80 79 79 78 77 77 77
88 86 87 87 84 80 74 76 85 82 81 77 77 74 74 73 66 63 65 69 71 74 83 80 80 80 80 82 82 82 80 80 81 82 82 81 80 80 79 78 78 77 77
86 88 85 85 84 84 82 82 84 82 81 78 76 72 76 80 79 68 63 68 68 71 82 83 78 83 82 84 84 81 80 80 80 80 81 81 80 80 80 80 79 78 78
79 85 84 85 82 83 83 85 85 83 82 81 79 78 78 74 75 70 68 68 68 77 84 85 83 84 81 78 88 84 81 79 79 78 79 79 80 81 81 81 80 80 80
80 84 84 83 84 84 85 85 83 82 82 81 82 80 80 76 78 73 69 70 71 73 72 79 83 84 87 83 87 82 79 78 77 76 76 77 78 79 79 80 80 81 81
81 85 83 83 83 83 83 84 83 83 82 79 80 80 78 77 79 76 76 75 72 72 69 69 71 80 84 85 83 81 79 75 75 74 74 75 75 76 77 77 77 78 79
85 84 82 79 80 83 83 83 83 81 81 79 80 81 78 82 74 73 76 77 74 70 68 67 68 72 78 85 82 84 84 75 73 73 73 73 73 74 75 75 75 75 76
81 83 82 81 82 84 85 83 82 82 79 79 79 78 79 81 80 82 78 78 77 73 71 79 71 69 69 83 81 83 76 74 72 72 72 71 72 72 73 73 73 73 73
78 80 74 77 84 82 84 81 81 82 78 74 78 82 81 81 80 81 80 79 78 77 73 76 79 73 76 75 76 80 78 79 75 71 71 71 70 71 71 71 71 72 72
83 82 79 83 83 83 83 82 82 83 80 77 79 82 82 86 82 81 80 78 78 78 75 72 76 76 78 76 74 73 78 84 81 71 70 69 69 69 69 69 69 69 69
84 85 84 83 83 84 79 81 82 81 79 80 81 82 82 83 80 80 79 78 77 78 77 75 74 76 77 77 74 75 76 77 80 71 69 68 68 68 67 67 66 66 66
82 83 84 83 83 82 80 80 82 82 80 83 84 84 85 83 81 80 80 78 80 76 76 76 76 76 75 77 76 75 74 76 76 81 75 72 69 68 67 66 65 65 63
82 82 82 83 82 80 84 80 82 83 81 81 83 84 84 82 79 77 78 77 76 75 75 73 73 75 74 73 73 73 72 74 76 77 77 74 70 70 69 66 68 66 64
77 78 81 81 80 85 80 75 81 84 84 83 82 82 84 81 79 73 72 73 75 75 75 73 75 75 73 74 74 73 72 70 69 77 75 76 77 73 73 73 69 67 64
78 78 79 80 80 82 76 76 76 83 83 82 82 82 82 88 80 80 75 70 70 69 70 74 73 75 75 75 74 74 73 72 72 73 72 73 77 77 79 72 69 66 65
79 77 78 80 82 82 66 68 73 81 82 81 80 80 80 81 73 73 75 77 78 79 78 75 74 75 76 77 76 76 74 74 73 74 74 70 73 73 75 77 71 68 65
80 79 80 80 80 76 63 64 71 80 81 79 80 81 82 80 62 64 73 73 72 73 76 71 70 67 68 70 74 73 72 70 71 73 73 73 74 71 72 75 74 67 64
82 84 82 83 78 79 61 62 66 79 80 81 82 82 63 67 60 60 69 69 67 69 71 71 71 71 72 75 68 72 75 70 70 69 74 70 71 72 69 75 76 68 65